Вернуться в каталог

TEE-01B

АктивенВоенныеSSO
NORAD 60012·PAYLOAD·🇨🇳 China
Это название спутника еще не подтверждено официальными источниками.

Запущен Jun 6, 2024 с Jiuquan Satellite Launch Center

Loading…

Ближайшие Пролёты (ближайшие 24 часа)

TLE

СвежийSource: Space-Track

Эпоха: Sep 14, 2026, 13:45 UTC

1 60012U 24110A   26257.57306028  .00003760  00000-0  23781-3 0  9990
2 60012  97.5681 348.5006 0022542 248.9160 110.9659 15.09427370125421

Отслеживайте TEE-01B в реальном времени с AllMySat

Download on the App Store